TimeEDT,TemperatureF,Dew PointF,Humidity,Sea Level PressureIn,VisibilityMPH,Wind Direction,Wind SpeedMPH,Gust SpeedMPH,PrecipitationIn,Events,Conditions,WindDirDegrees,DateUTC
12:53 AM,73.9,59.0,59,29.84,10.0,WSW,9.2,-,N/A,Thunderstorm,Mostly Cloudy,240,2013-05-16 04:53:00
1:25 AM,69.8,62.6,78,29.86,2.5,WSW,11.5,-,0.27,Rain-Thunderstorm,Thunderstorms and Rain,240,2013-05-16 05:25:00
1:32 AM,71.6,62.6,73,29.86,7.0,WSW,8.1,-,0.28,Rain-Thunderstorm,Light Thunderstorms and Rain,250,2013-05-16 05:32:00
1:53 AM,70.0,63.0,78,29.84,10.0,SW,9.2,-,0.28,Rain-Thunderstorm,Light Rain,220,2013-05-16 05:53:00
2:20 AM,69.8,62.6,78,29.85,10.0,SSW,8.1,-,0.00,,Overcast,210,2013-05-16 06:20:00
2:53 AM,69.1,62.1,78,29.83,10.0,SW,8.1,-,0.00,,Partly Cloudy,220,2013-05-16 06:53:00
3:53 AM,69.1,62.1,78,29.82,10.0,SW,6.9,-,0.00,,Mostly Cloudy,220,2013-05-16 07:53:00
4:53 AM,66.9,61.0,81,29.82,10.0,SSW,5.8,-,N/A,,Clear,210,2013-05-16 08:53:00
5:53 AM,66.9,61.0,81,29.83,10.0,SW,6.9,-,N/A,,Overcast,220,2013-05-16 09:53:00
6:53 AM,66.9,61.0,81,29.84,10.0,SSW,5.8,-,N/A,,Mostly Cloudy,210,2013-05-16 10:53:00
7:53 AM,69.1,62.1,78,29.86,10.0,SSW,4.6,-,N/A,,Partly Cloudy,200,2013-05-16 11:53:00
8:53 AM,71.1,62.1,73,29.87,10.0,SSW,8.1,-,N/A,,Scattered Clouds,210,2013-05-16 12:53:00
9:53 AM,72.0,63.0,73,29.89,10.0,West,4.6,-,N/A,,Scattered Clouds,260,2013-05-16 13:53:00
10:53 AM,73.9,63.0,68,29.89,10.0,Calm,Calm,-,N/A,,Mostly Cloudy,0,2013-05-16 14:53:00
11:53 AM,75.9,64.0,67,29.90,10.0,South,4.6,-,N/A,,Mostly Cloudy,190,2013-05-16 15:53:00
12:41 PM,77.0,64.4,65,29.94,9.0,WSW,8.1,-,N/A,,Mostly Cloudy,250,2013-05-16 16:41:00
12:53 PM,78.1,64.0,62,29.92,10.0,WSW,12.7,-,N/A,,Mostly Cloudy,250,2013-05-16 16:53:00
1:53 PM,75.0,63.0,66,29.92,10.0,WSW,17.3,27.6,N/A,,Mostly Cloudy,250,2013-05-16 17:53:00
2:53 PM,80.1,59.0,48,29.91,10.0,SW,18.4,-,N/A,,Mostly Cloudy,230,2013-05-16 18:53:00
3:53 PM,81.0,57.9,45,29.90,10.0,WSW,9.2,-,N/A,,Clear,250,2013-05-16 19:53:00
4:53 PM,81.0,55.9,42,29.88,10.0,SW,9.2,-,N/A,,Clear,230,2013-05-16 20:53:00
6:53 PM,75.0,62.1,64,29.89,10.0,South,12.7,-,N/A,,Clear,170,2013-05-16 22:53:00
7:53 PM,72.0,62.1,71,29.89,10.0,South,13.8,-,N/A,,Clear,190,2013-05-16 23:53:00
8:53 PM,69.1,62.1,78,29.92,10.0,South,9.2,-,N/A,,Clear,190,2013-05-17 00:53:00
9:53 PM,68.0,62.1,81,29.94,10.0,SSW,6.9,-,N/A,,Mostly Cloudy,210,2013-05-17 01:53:00
10:53 PM,66.9,62.1,84,29.95,10.0,South,4.6,-,N/A,,Partly Cloudy,190,2013-05-17 02:53:00
11:53 PM,66.0,62.1,87,29.95,8.0,South,5.8,-,N/A,,Clear,190,2013-05-17 03:53:00